Regional Weather Roundup
Issued by NWS Bismarck, ND

Home | Current Version | Previous Version | Text Only | Print | Product List | Glossary On
Versions: 1 2 3 4 5 6 7 8 9 10 11 12 13 14 15 16 17 18 19 20 21 22 23 24 25 26 27 28 29 30 31 32 33 34 35 36 37 38 39 40 41 42 43 44 45 46 47 48 49 50
000
ASUS43 KBIS 240110
RWRBIS

NWR BROADCAST TEXT
NATIONAL WEATHER SERVICE BISMARCK ND
800 PM CDT TUE MAY 23 2017

NOTE: "FAIR" INDICATES FEW OR NO CLOUDS BELOW 12,000 FEET WITH NO
SIGNIFICANT WEATHER AND/OR OBSTRUCTIONS TO VISIBILITY.


CITY           SKY/WX    TMP DP  RH WIND       PRES   REMARKS
WILLISTON      FAIR      69  33  26 SE9       29.95F
MINOT          FAIR      65  34  31 E5        29.97F
MINOT AFB      FAIR      67  32  27 S5        29.96F
BISMARCK       FAIR      63  37  38 E12G22    29.99F
DICKINSON      FAIR      61  32  33 E6        29.99F
GARRISON         N/A     64  33  31 MISG      29.98F
HETTINGER ARPT FAIR      63  32  31 N7        30.02F
JAMESTOWN      PTSUNNY   56  40  55 NE12      29.97S
HAZEN          FAIR      64  32  29 NE5       30.01S
LINTON         FAIR      59  43  55 NE12      30.01S
MANDAN         FAIR      61  36  39 E9        30.00S
STANLEY        FAIR      63  34  34 SE5       30.00F
TIOGA          FAIR      64  30  27 S12       29.98F
WATFORD CITY   FAIR      66  32  28 SE9       29.97F
$$

CITY           SKY/WX    TMP DP  RH WIND       PRES   REMARKS
GRAND FORKS    FAIR      62  42  47 E9        29.95F
GRAND FORKS AF FAIR      60  42  51 SE6       29.96S
DEVILS LAKE    FAIR      62  38  40 E10       29.98F
FARGO          CLOUDY    57  44  62 NE12      29.94S
CAVALIER       FAIR      64  36  34 NE6       29.95S
GRAFTON        FAIR      63  41  45 E7G13     29.97S
GWINNER        PTCLDY    55  45  67 MISG      29.95S
LANGDON        FAIR      63  39  42 NE7       29.98S
ROLLA          FAIR      64  30  27 NE3       29.99S
$$

CITY           SKY/WX    TMP DP  RH WIND       PRES   REMARKS
ABERDEEN       FAIR      54  40  59 N13       29.96S
MOBRIDGE       FAIR      61  36  39 N10       29.97S
BUFFALO          N/A     63  36  36 NE6       29.96F
RAPID CITY     FAIR      60  34  37 N15       30.03S
GLASGOW        FAIR      71  28  20 SE16      29.86F
SIDNEY         FAIR      69  33  26 S10       29.94F
WOLF POINT     FAIR      73  30  20 S12       29.89F
GLENDIVE       FAIR      68  32  26 S9        29.95F
MILES CITY     FAIR      68  32  26 SE12      29.95F
BAKER          FAIR      63  34  33 SE9       30.01F
$$

CITY           SKY/WX    TMP DP  RH WIND       PRES   REMARKS
BILLINGS       PTSUNNY   70  41  34 SE13      29.91F
GREAT FALLS    FAIR      78  45  30 SW9       29.78F
REGINA         PTSUNNY   72  30  21 S15G21    29.82F
ESTEVAN        CLOUDY    66  36  32 SE15      29.92F
$$




USA.gov is the U.S. government's official web portal to all federal, state and local government web resources and services.